Regional Weather Roundup
Issued by NWS Northern Indiana

Home | Current Version | Previous Version | Graphics & Text | Print | Product List | Glossary On
Versions: 1 2 3 4 5 6 7 8 9 10 11 12 13 14 15 16 17 18 19 20 21 22 23 24 25 26 27 28 29 30 31 32 33 34 35 36 37 38 39 40 41 42 43 44 45 46 47 48 49 50
646
ASUS43 KIWX 261110
RWRIWX

KIWX WEATHER ROUNDUP
NATIONAL WEATHER SERVICE NORTHERN INDIANA
700 AM EDT WED JUL 26 2017

NOTE: "FAIR" INDICATES FEW OR NO CLOUDS BELOW 12,000 FEET WITH NO
SIGNIFICANT WEATHER AND/OR OBSTRUCTIONS TO VISIBILITY.

* THESE STATIONS ARE NOT UNDER NWS QUALITY CONTROL. THEY ALSO MAY NOT
  REPORT WEATHER SUCH AS PRECIPITATION OR FOG.

INZ001>027-261200-
NORTHERN INDIANA

CITY           SKY/WX    TMP DP  RH WIND       PRES   REMARKS
GARY*          MOCLDY    66  61  82 S7        30.11F
VALPARAISO     CLEAR     64  61  90 S5        30.12F
MICHIGAN CITY* PTCLDY    64  59  82 S6        30.12F
LAPORTE*       CLEAR     62  59  91 S5        30.13F
KNOX*          CLEAR     61  59  94 S3        30.13S
SOUTH BEND     MOCLDY    64  60  87 S9        30.13F
ELKHART*       CLOUDY    63  59  88 SE5       30.14
GOSHEN         CLEAR     61  57  87 SE5       30.14F
MONTICELLO*    CLEAR     62  60  95 SE3       30.12S
LOGANSPORT*    CLEAR     57  57 100 SE3       30.14S
ROCHESTER*     CLEAR     63  61  94 E3        30.15S
WARSAW*        CLEAR     59  59 100 CALM      30.15S
AUBURN*        PTCLDY    59  55  88 CALM      30.17S FOG
FORT WAYNE     PTCLDY    60  57  89 CALM      30.17R
HUNTINGTON*    CLEAR     60  58  95 CALM      30.16R
PERU/GRISSOM   CLEAR     60  60 100 SE5       30.13F
MARION*        CLEAR     57  57 100 CALM      30.16S

$$
INZ028>050-261200-
CENTRAL INDIANA

CITY           SKY/WX    TMP DP  RH WIND       PRES   REMARKS
LAFAYETTE      CLEAR     62  60  93 E3        30.12F
KOKOMO*        CLEAR     60  59  96 S3        30.15F
MUNCIE*        CLEAR     63  58  83 S6        30.15F
INDIANAPOLIS   PTCLDY    63  60  90 SE7       30.14R

$$
MIZ043>046-050>051-056>058-064>065-071>073-077>080-261200-
SOUTHWEST LOWER MICHIGAN

CITY           SKY/WX    TMP DP  RH WIND       PRES   REMARKS
BATTLE CREEK   PTCLDY    62  59  90 S7        30.15S
BENTON HARBOR  MOCLDY    65  59  81 S3        30.12R
COLDWATER*     CLEAR     60  60 100 SE6       30.14F
HILLSDALE*     PTCLDY    57  55  94 SE3       30.16S FOG
HOLLAND        CLOUDY    62  58  86 S6        30.12F
GRAND RAPIDS   CLOUDY    64  59  83 S7        30.13S
KALAMAZOO      PTCLDY    63  57  81 S5        30.15S
STURGIS*       PTCLDY    60  58  93 SE5       30.13F
THREE RIVERS*  FAIR      60  58  91 S3        30.14F

$$
OHZ001>008-015>018-024>025-261200-
NORTHWEST OHIO

CITY           SKY/WX    TMP DP  RH WIND       PRES   REMARKS
WAUSEON*       FAIR      57  57 100 S6        30.16S
DEFIANCE       CLEAR    N/A N/A N/A CALM      30.17R
FINDLAY        CLEAR     60  57  89 CALM      30.16S
TOLEDO EXPRESS CLEAR     57  57 100 CALM      30.16S
TOLEDO METCALF PTCLDY    61  59  93 CALM      30.18R
LIMA           CLEAR     57  57 100 CALM      30.17F

$$
AND FOR LAKE MICHIGAN COASTAL AND OPEN LAKE BUOY OBSERVATIONS

STATION/POSITION TEMP    WIND        PRES    VSBY  WAVE
                 AIR SEA DIR/SP/G                  HT/PER
                 (F)     (DEG/KT/KT) (MB)    (MI)  (FT/S)
CALUMET HARBOR    68     180/  7/  9 1018.8F
MICHIGAN CITY     67     160/ 11/ 15   N/A
BURNS HARBOR      67     190/  9/ 14 1019.6F
SAINT JOSEPH      66     170/  3/  6 1021.0
SOUTH LAKE BUOY   71 70  200/ 14/ 16 1018.5F         3/ 5
4 MI NW BRIDGMAN  68 72  210/ 12/ 16 1019.6          2/ 3
MICHIGAN CITY     68 74  190/ 14/ 17   N/A           1/ 2

$$
&&




USA.gov is the U.S. government's official web portal to all federal, state and local government web resources and services.